Time,TemperatureF,DewpointF,PressureIn,WindDirection,WindDirectionDegrees,WindSpeedMPH,WindSpeedGustMPH,Humidity,HourlyPrecipIn,Conditions,Clouds,dailyrainin,SolarRadiationWatts/m^2,SoftwareType,DateUTC
2013-02-01 00:01:00,49.0,36.0,-100.00,South,174,0.0,0.0,60,-99.99,,,-99.99,0.000000,,2013-02-01 08:01:00,
2013-02-01 00:11:00,48.0,36.0,-100.00,South,174,0.0,1.0,63,-99.99,,,-99.99,0.000000,,2013-02-01 08:11:00,
2013-02-01 00:21:00,48.0,36.0,-100.00,South,175,0.0,1.0,64,-99.99,,,-99.99,0.000000,,2013-02-01 08:21:00,
2013-02-01 00:31:00,47.0,36.0,-100.00,South,181,1.0,2.0,64,-99.99,,,-99.99,0.000000,,2013-02-01 08:31:00,
2013-02-01 00:42:00,47.0,36.0,-100.00,North,-999,0.0,0.0,64,-99.99,,,-99.99,0.000000,,2013-02-01 08:42:00,
2013-02-01 00:52:00,47.0,36.0,-100.00,NNE,22,0.0,1.0,65,-99.99,,,-99.99,0.000000,,2013-02-01 08:52:00,
2013-02-01 01:01:00,47.0,36.0,-100.00,North,-999,0.0,0.0,64,-99.99,,,-99.99,0.000000,,2013-02-01 09:01:00,
2013-02-01 01:11:00,47.0,36.0,-100.00,North,-999,0.0,0.0,65,-99.99,,,-99.99,0.000000,,2013-02-01 09:11:00,
2013-02-01 01:21:00,47.0,36.0,-100.00,NE,47,0.0,1.0,66,-99.99,,,-99.99,0.000000,,2013-02-01 09:21:00,
2013-02-01 01:32:00,47.0,35.0,-100.00,North,-999,0.0,0.0,64,-99.99,,,-99.99,0.000000,,2013-02-01 09:32:00,
2013-02-01 01:41:00,47.0,35.0,-100.00,SSW,192,0.0,0.0,65,-99.99,,,-99.99,0.000000,,2013-02-01 09:41:00,
2013-02-01 01:51:00,47.0,35.0,-100.00,SSW,192,0.0,0.0,65,-99.99,,,-99.99,0.000000,,2013-02-01 09:51:00,
2013-02-01 02:01:00,47.0,36.0,-100.00,South,176,0.0,1.0,65,-99.99,,,-99.99,0.000000,,2013-02-01 10:01:00,
2013-02-01 02:11:00,47.0,36.0,-100.00,SSE,154,0.0,2.0,66,-99.99,,,-99.99,0.000000,,2013-02-01 10:11:00,
2013-02-01 02:21:00,47.0,36.0,-100.00,ENE,66,0.0,1.0,66,-99.99,,,-99.99,0.000000,,2013-02-01 10:21:00,
2013-02-01 02:31:00,47.0,36.0,-100.00,ENE,66,0.0,1.0,66,-99.99,,,-99.99,0.000000,,2013-02-01 10:31:00,
2013-02-01 02:42:00,46.0,36.0,-100.00,ENE,67,0.0,0.0,68,-99.99,,,-99.99,0.000000,,2013-02-01 10:42:00,
2013-02-01 02:52:00,46.0,36.0,-100.00,ENE,67,0.0,0.0,68,-99.99,,,-99.99,0.000000,,2013-02-01 10:52:00,
2013-02-01 03:01:00,45.0,36.0,-100.00,South,187,1.0,2.0,70,-99.99,,,-99.99,0.000000,,2013-02-01 11:01:00,
2013-02-01 03:11:00,45.0,35.0,-100.00,South,180,0.0,1.0,69,-99.99,,,-99.99,0.000000,,2013-02-01 11:11:00,
2013-02-01 03:21:00,45.0,36.0,-100.00,South,176,1.0,2.0,70,-99.99,,,-99.99,0.000000,,2013-02-01 11:21:00,
2013-02-01 03:32:00,45.0,36.0,-100.00,South,176,1.0,2.0,70,-99.99,,,-99.99,0.000000,,2013-02-01 11:32:00,
2013-02-01 03:41:00,45.0,35.0,-100.00,South,171,1.0,2.0,68,-99.99,,,-99.99,0.000000,,2013-02-01 11:41:00,
2013-02-01 03:53:00,45.0,35.0,-100.00,South,171,1.0,2.0,68,-99.99,,,-99.99,0.000000,,2013-02-01 11:53:00,
2013-02-01 04:02:00,44.0,35.0,-100.00,South,181,1.0,2.0,69,-99.99,,,-99.99,0.000000,,2013-02-01 12:02:00,
2013-02-01 04:12:00,45.0,34.0,-100.00,South,176,2.0,3.0,66,-99.99,,,-99.99,0.000000,,2013-02-01 12:12:00,
2013-02-01 04:22:00,45.0,34.0,-100.00,South,170,2.0,3.0,65,-99.99,,,-99.99,0.000000,,2013-02-01 12:22:00,
2013-02-01 04:32:00,45.0,34.0,-100.00,South,170,2.0,3.0,65,-99.99,,,-99.99,0.000000,,2013-02-01 12:32:00,
2013-02-01 04:42:00,45.0,34.0,-100.00,South,176,2.0,3.0,64,-99.99,,,-99.99,0.000000,,2013-02-01 12:42:00,
2013-02-01 04:52:00,45.0,34.0,-100.00,South,174,2.0,4.0,64,-99.99,,,-99.99,0.000000,,2013-02-01 12:52:00,
2013-02-01 05:02:00,45.0,34.0,-100.00,South,171,2.0,3.0,65,-99.99,,,-99.99,0.000000,,2013-02-01 13:02:00,
2013-02-01 05:11:00,44.0,34.0,-100.00,ENE,59,0.0,1.0,67,-99.99,,,-99.99,0.000000,,2013-02-01 13:11:00,
2013-02-01 05:21:00,44.0,34.0,-100.00,North,-999,0.0,0.0,68,-99.99,,,-99.99,0.000000,,2013-02-01 13:21:00,
2013-02-01 05:32:00,43.0,35.0,-100.00,SSE,157,1.0,2.0,72,-99.99,,,-99.99,0.000000,,2013-02-01 13:32:00,
2013-02-01 05:42:00,43.0,34.0,-100.00,North,360,0.0,1.0,71,-99.99,,,-99.99,0.000000,,2013-02-01 13:42:00,
2013-02-01 05:52:00,43.0,34.0,-100.00,North,360,0.0,1.0,71,-99.99,,,-99.99,0.000000,,2013-02-01 13:52:00,
2013-02-01 06:03:00,43.0,34.0,-100.00,North,359,1.0,2.0,71,-99.99,,,-99.99,0.000000,,2013-02-01 14:03:00,
2013-02-01 06:11:00,42.0,34.0,-100.00,SSE,163,1.0,2.0,73,-99.99,,,-99.99,0.000000,,2013-02-01 14:11:00,
2013-02-01 06:21:00,42.0,34.0,-100.00,SSE,163,1.0,2.0,73,-99.99,,,-99.99,0.000000,,2013-02-01 14:21:00,
2013-02-01 06:32:00,42.0,34.0,-100.00,South,178,0.0,2.0,73,-99.99,,,-99.99,0.000000,,2013-02-01 14:32:00,
2013-02-01 06:42:00,42.0,34.0,-100.00,SSW,193,0.0,1.0,75,-99.99,,,-99.99,0.000000,,2013-02-01 14:42:00,
2013-02-01 06:52:00,42.0,34.0,-100.00,South,186,0.0,2.0,74,-99.99,,,-99.99,0.000000,,2013-02-01 14:52:00,
2013-02-01 07:02:00,42.0,34.0,-100.00,South,189,0.0,1.0,74,-99.99,,,-99.99,0.000000,,2013-02-01 15:02:00,
2013-02-01 07:12:00,42.0,34.0,-100.00,SW,235,0.0,0.0,75,-99.99,,,-99.99,0.000000,,2013-02-01 15:12:00,
2013-02-01 07:21:00,42.0,34.0,-100.00,South,182,0.0,2.0,75,-99.99,,,-99.99,4.000000,,2013-02-01 15:21:00,
2013-02-01 07:32:00,42.0,34.0,-100.00,South,182,0.0,2.0,75,-99.99,,,-99.99,4.000000,,2013-02-01 15:32:00,
2013-02-01 07:42:00,43.0,33.0,-100.00,South,180,1.0,3.0,70,-99.99,,,-99.99,10.000000,,2013-02-01 15:42:00,
2013-02-01 07:51:00,43.0,34.0,-100.00,South,183,0.0,1.0,70,-99.99,,,-99.99,12.000000,,2013-02-01 15:51:00,
2013-02-01 08:02:00,43.0,34.0,-100.00,South,183,0.0,1.0,70,-99.99,,,-99.99,12.000000,,2013-02-01 16:02:00,
2013-02-01 08:11:00,44.0,33.0,-100.00,South,170,1.0,4.0,66,-99.99,,,-99.99,18.000000,,2013-02-01 16:11:00,
2013-02-01 08:22:00,45.0,34.0,-100.00,South,173,1.0,3.0,65,-99.99,,,-99.99,18.000000,,2013-02-01 16:22:00,
2013-02-01 08:32:00,45.0,34.0,-100.00,South,173,1.0,3.0,65,-99.99,,,-99.99,18.000000,,2013-02-01 16:32:00,
2013-02-01 08:42:00,46.0,33.0,-100.00,South,170,2.0,3.0,61,-99.99,,,-99.99,19.000000,,2013-02-01 16:42:00,
2013-02-01 08:52:00,47.0,34.0,-100.00,South,169,2.0,3.0,60,-99.99,,,-99.99,21.000000,,2013-02-01 16:52:00,
2013-02-01 09:02:00,48.0,33.0,-100.00,South,175,1.0,3.0,57,-99.99,,,-99.99,25.000000,,2013-02-01 17:02:00,
2013-02-01 09:11:00,49.0,33.0,-100.00,South,191,0.0,2.0,55,-99.99,,,-99.99,25.000000,,2013-02-01 17:11:00,
2013-02-01 09:22:00,49.0,32.0,-100.00,NW,319,1.0,3.0,52,-99.99,,,-99.99,25.000000,,2013-02-01 17:22:00,
2013-02-01 09:32:00,50.0,33.0,-100.00,South,180,1.0,3.0,52,-99.99,,,-99.99,25.000000,,2013-02-01 17:32:00,
2013-02-01 09:42:00,51.0,33.0,-100.00,South,180,3.0,5.0,51,-99.99,,,-99.99,28.000000,,2013-02-01 17:42:00,
2013-02-01 09:52:00,51.0,33.0,-100.00,SSE,168,3.0,5.0,49,-99.99,,,-99.99,325.000000,,2013-02-01 17:52:00,
2013-02-01 10:02:00,51.0,33.0,-100.00,SSE,168,3.0,5.0,49,-99.99,,,-99.99,325.000000,,2013-02-01 18:02:00,
2013-02-01 10:12:00,56.0,33.0,-100.00,NE,48,1.0,3.0,42,-99.99,,,-99.99,466.000000,,2013-02-01 18:12:00,
2013-02-01 10:22:00,56.0,33.0,-100.00,NE,48,1.0,3.0,42,-99.99,,,-99.99,466.000000,,2013-02-01 18:22:00,
2013-02-01 10:32:00,58.0,33.0,-100.00,NNW,339,1.0,3.0,39,-99.99,,,-99.99,491.000000,,2013-02-01 18:32:00,
2013-02-01 10:42:00,57.0,33.0,-100.00,NE,52,1.0,2.0,40,-99.99,,,-99.99,514.000000,,2013-02-01 18:42:00,
2013-02-01 10:52:00,58.0,33.0,-100.00,NE,53,1.0,3.0,39,-99.99,,,-99.99,538.000000,,2013-02-01 18:52:00,
2013-02-01 11:02:00,59.0,33.0,-100.00,NNE,17,1.0,3.0,38,-99.99,,,-99.99,560.000000,,2013-02-01 19:02:00,
2013-02-01 11:11:00,59.0,32.0,-100.00,NE,36,2.0,5.0,35,-99.99,,,-99.99,602.000000,,2013-02-01 19:11:00,
2013-02-01 11:21:00,59.0,32.0,-100.00,NE,53,2.0,4.0,35,-99.99,,,-99.99,618.000000,,2013-02-01 19:21:00,
2013-02-01 11:32:00,59.0,32.0,-100.00,NE,52,2.0,4.0,36,-99.99,,,-99.99,441.000000,,2013-02-01 19:32:00,
2013-02-01 11:41:00,59.0,32.0,-100.00,NE,45,2.0,5.0,35,-99.99,,,-99.99,122.000000,,2013-02-01 19:41:00,
2013-02-01 11:51:00,60.0,31.0,-100.00,NE,52,2.0,5.0,34,-99.99,,,-99.99,644.000000,,2013-02-01 19:51:00,
2013-02-01 12:02:00,61.0,32.0,-100.00,NNE,31,1.0,4.0,33,-99.99,,,-99.99,663.000000,,2013-02-01 20:02:00,
2013-02-01 12:11:00,62.0,32.0,-100.00,NE,49,1.0,4.0,32,-99.99,,,-99.99,684.000000,,2013-02-01 20:11:00,
2013-02-01 12:21:00,61.0,31.0,-100.00,NNE,25,1.0,3.0,32,-99.99,,,-99.99,687.000000,,2013-02-01 20:21:00,
2013-02-01 12:31:00,63.0,31.0,-100.00,NNE,28,1.0,2.0,30,-99.99,,,-99.99,691.000000,,2013-02-01 20:31:00,
2013-02-01 12:41:00,63.0,31.0,-100.00,South,188,2.0,8.0,30,-99.99,,,-99.99,693.000000,,2013-02-01 20:41:00,
2013-02-01 12:52:00,64.0,32.0,-100.00,South,178,1.0,4.0,30,-99.99,,,-99.99,693.000000,,2013-02-01 20:52:00,
2013-02-01 13:01:00,65.0,31.0,-100.00,NE,43,1.0,5.0,28,-99.99,,,-99.99,689.000000,,2013-02-01 21:01:00,
2013-02-01 13:11:00,63.0,31.0,-100.00,NNE,28,2.0,6.0,30,-99.99,,,-99.99,687.000000,,2013-02-01 21:11:00,
2013-02-01 13:21:00,63.0,31.0,-100.00,NNE,23,1.0,4.0,29,-99.99,,,-99.99,680.000000,,2013-02-01 21:21:00,
2013-02-01 13:31:00,63.0,31.0,-100.00,NNE,23,1.0,4.0,29,-99.99,,,-99.99,680.000000,,2013-02-01 21:31:00,
2013-02-01 13:40:00,66.0,30.0,-100.00,South,176,1.0,6.0,26,-99.99,,,-99.99,603.000000,,2013-02-01 21:40:00,
2013-02-01 13:41:00,65.0,31.0,-100.00,NNE,23,1.0,4.0,28,-99.99,,,-99.99,664.000000,,2013-02-01 21:41:00,
2013-02-01 13:52:00,65.0,31.0,-100.00,NE,46,1.0,4.0,28,-99.99,,,-99.99,652.000000,,2013-02-01 21:52:00,
2013-02-01 14:02:00,66.0,31.0,-100.00,WSW,249,1.0,3.0,27,-99.99,,,-99.99,638.000000,,2013-02-01 22:02:00,
2013-02-01 14:11:00,66.0,31.0,-100.00,WSW,249,1.0,3.0,27,-99.99,,,-99.99,638.000000,,2013-02-01 22:11:00,
2013-02-01 14:21:00,66.0,30.0,-100.00,South,176,1.0,6.0,26,-99.99,,,-99.99,603.000000,,2013-02-01 22:21:00,
2013-02-01 14:32:00,66.0,30.0,-100.00,South,176,1.0,6.0,26,-99.99,,,-99.99,603.000000,,2013-02-01 22:32:00,
2013-02-01 14:51:00,67.0,31.0,-100.00,NE,52,2.0,6.0,26,-99.99,,,-99.99,565.000000,,2013-02-01 22:51:00,
2013-02-01 15:01:00,68.0,31.0,-100.00,NE,51,2.0,5.0,25,-99.99,,,-99.99,516.000000,,2013-02-01 23:01:00,
2013-02-01 15:11:00,68.0,31.0,-100.00,NE,51,2.0,5.0,25,-99.99,,,-99.99,516.000000,,2013-02-01 23:11:00,
2013-02-01 15:21:00,67.0,30.0,-100.00,North,350,2.0,5.0,25,-99.99,,,-99.99,488.000000,,2013-02-01 23:21:00,
2013-02-01 15:31:00,68.0,31.0,-100.00,NNE,23,1.0,3.0,25,-99.99,,,-99.99,429.000000,,2013-02-01 23:31:00,
2013-02-01 15:41:00,68.0,31.0,-100.00,NNE,23,1.0,3.0,25,-99.99,,,-99.99,429.000000,,2013-02-01 23:41:00,
2013-02-01 15:52:00,69.0,31.0,-100.00,NE,56,1.0,4.0,24,-99.99,,,-99.99,400.000000,,2013-02-01 23:52:00,
2013-02-01 16:02:00,69.0,32.0,-100.00,NE,54,1.0,3.0,25,-99.99,,,-99.99,342.000000,,2013-02-02 00:02:00,
2013-02-01 16:11:00,69.0,32.0,-100.00,NE,54,1.0,3.0,25,-99.99,,,-99.99,342.000000,,2013-02-02 00:11:00,
2013-02-01 16:21:00,71.0,31.0,-100.00,South,183,1.0,3.0,23,-99.99,,,-99.99,307.000000,,2013-02-02 00:21:00,
2013-02-01 16:32:00,69.0,31.0,-100.00,SSW,193,2.0,5.0,24,-99.99,,,-99.99,268.000000,,2013-02-02 00:32:00,
2013-02-01 16:41:00,68.0,31.0,-100.00,South,181,2.0,5.0,26,-99.99,,,-99.99,187.000000,,2013-02-02 00:41:00,
2013-02-01 16:52:00,68.0,31.0,-100.00,South,181,2.0,5.0,26,-99.99,,,-99.99,187.000000,,2013-02-02 00:52:00,
2013-02-01 17:02:00,68.0,32.0,-100.00,WSW,246,1.0,5.0,26,-99.99,,,-99.99,157.000000,,2013-02-02 01:02:00,
2013-02-01 17:11:00,67.0,32.0,-100.00,NE,44,1.0,2.0,27,-99.99,,,-99.99,81.000000,,2013-02-02 01:11:00,
2013-02-01 17:21:00,65.0,32.0,-100.00,South,191,0.0,2.0,29,-99.99,,,-99.99,37.000000,,2013-02-02 01:21:00,
2013-02-01 17:32:00,64.0,33.0,-100.00,NE,55,0.0,2.0,31,-99.99,,,-99.99,31.000000,,2013-02-02 01:32:00,
2013-02-01 17:41:00,64.0,32.0,-100.00,South,183,1.0,4.0,31,-99.99,,,-99.99,24.000000,,2013-02-02 01:41:00,
2013-02-01 17:52:00,63.0,33.0,-100.00,South,177,1.0,3.0,32,-99.99,,,-99.99,13.000000,,2013-02-02 01:52:00,
2013-02-01 18:01:00,62.0,33.0,-100.00,South,177,0.0,2.0,33,-99.99,,,-99.99,4.000000,,2013-02-02 02:01:00,
2013-02-01 18:11:00,61.0,34.0,-100.00,SSW,199,0.0,1.0,35,-99.99,,,-99.99,3.000000,,2013-02-02 02:11:00,
2013-02-01 18:21:00,61.0,33.0,-100.00,SSW,196,1.0,3.0,34,-99.99,,,-99.99,0.000000,,2013-02-02 02:21:00,
2013-02-01 18:31:00,61.0,32.0,-100.00,SSW,198,1.0,2.0,34,-99.99,,,-99.99,0.000000,,2013-02-02 02:31:00,
2013-02-01 18:41:00,61.0,32.0,-100.00,SW,230,0.0,3.0,34,-99.99,,,-99.99,0.000000,,2013-02-02 02:41:00,
2013-02-01 18:52:00,61.0,32.0,-100.00,South,184,1.0,5.0,34,-99.99,,,-99.99,0.000000,,2013-02-02 02:52:00,
2013-02-01 19:02:00,59.0,34.0,-100.00,SSW,205,0.0,1.0,38,-99.99,,,-99.99,0.000000,,2013-02-02 03:02:00,
2013-02-01 19:11:00,59.0,34.0,-100.00,SSW,192,1.0,6.0,39,-99.99,,,-99.99,0.000000,,2013-02-02 03:11:00,
2013-02-01 19:21:00,59.0,34.0,-100.00,SSW,192,1.0,6.0,39,-99.99,,,-99.99,0.000000,,2013-02-02 03:21:00,
2013-02-01 19:32:00,60.0,33.0,-100.00,SSW,197,3.0,7.0,36,-99.99,,,-99.99,0.000000,,2013-02-02 03:32:00,
2013-02-01 19:42:00,61.0,32.0,-100.00,South,170,1.0,2.0,34,-99.99,,,-99.99,0.000000,,2013-02-02 03:42:00,
2013-02-01 19:51:00,59.0,34.0,-100.00,South,172,1.0,3.0,38,-99.99,,,-99.99,0.000000,,2013-02-02 03:51:00,
2013-02-01 20:01:00,58.0,34.0,-100.00,SSE,164,1.0,3.0,39,-99.99,,,-99.99,0.000000,,2013-02-02 04:01:00,
2013-02-01 20:11:00,58.0,34.0,-100.00,South,187,1.0,2.0,41,-99.99,,,-99.99,0.000000,,2013-02-02 04:11:00,
2013-02-01 20:21:00,57.0,34.0,-100.00,South,186,0.0,1.0,42,-99.99,,,-99.99,0.000000,,2013-02-02 04:21:00,
2013-02-01 20:32:00,57.0,34.0,-100.00,North,-999,0.0,0.0,42,-99.99,,,-99.99,0.000000,,2013-02-02 04:32:00,
2013-02-01 20:41:00,56.0,34.0,-100.00,North,-999,0.0,0.0,43,-99.99,,,-99.99,0.000000,,2013-02-02 04:41:00,
2013-02-01 20:51:00,56.0,34.0,-100.00,North,-999,0.0,0.0,43,-99.99,,,-99.99,0.000000,,2013-02-02 04:51:00,
2013-02-01 21:03:00,56.0,34.0,-100.00,NE,43,0.0,1.0,44,-99.99,,,-99.99,0.000000,,2013-02-02 05:03:00,
2013-02-01 21:11:00,56.0,35.0,-100.00,SSE,160,0.0,1.0,46,-99.99,,,-99.99,0.000000,,2013-02-02 05:11:00,
2013-02-01 21:22:00,57.0,35.0,-100.00,NE,56,0.0,1.0,44,-99.99,,,-99.99,0.000000,,2013-02-02 05:22:00,
2013-02-01 21:33:00,56.0,35.0,-100.00,NE,54,1.0,2.0,45,-99.99,,,-99.99,0.000000,,2013-02-02 05:33:00,
2013-02-01 21:41:00,55.0,35.0,-100.00,North,-999,0.0,0.0,47,-99.99,,,-99.99,0.000000,,2013-02-02 05:41:00,
2013-02-01 21:52:00,54.0,35.0,-100.00,WNW,288,0.0,1.0,48,-99.99,,,-99.99,0.000000,,2013-02-02 05:52:00,
2013-02-01 22:02:00,54.0,35.0,-100.00,WNW,288,0.0,1.0,48,-99.99,,,-99.99,0.000000,,2013-02-02 06:02:00,
2013-02-01 22:12:00,54.0,36.0,-100.00,South,180,0.0,1.0,52,-99.99,,,-99.99,0.000000,,2013-02-02 06:12:00,
2013-02-01 22:21:00,53.0,36.0,-100.00,South,180,1.0,3.0,52,-99.99,,,-99.99,0.000000,,2013-02-02 06:21:00,
2013-02-01 22:31:00,53.0,36.0,-100.00,South,180,1.0,3.0,52,-99.99,,,-99.99,0.000000,,2013-02-02 06:31:00,
2013-02-01 22:41:00,53.0,36.0,-100.00,South,188,1.0,2.0,51,-99.99,,,-99.99,0.000000,,2013-02-02 06:41:00,
2013-02-01 22:51:00,52.0,35.0,-100.00,North,-999,0.0,0.0,52,-99.99,,,-99.99,0.000000,,2013-02-02 06:51:00,
2013-02-01 23:02:00,52.0,36.0,-100.00,SSW,194,0.0,1.0,53,-99.99,,,-99.99,0.000000,,2013-02-02 07:02:00,
2013-02-01 23:11:00,52.0,36.0,-100.00,SSW,194,0.0,1.0,53,-99.99,,,-99.99,0.000000,,2013-02-02 07:11:00,
2013-02-01 23:21:00,52.0,36.0,-100.00,South,174,1.0,3.0,53,-99.99,,,-99.99,0.000000,,2013-02-02 07:21:00,
2013-02-01 23:31:00,52.0,36.0,-100.00,South,174,1.0,3.0,53,-99.99,,,-99.99,0.000000,,2013-02-02 07:31:00,
2013-02-01 23:41:00,52.0,36.0,-100.00,SSW,198,0.0,1.0,53,-99.99,,,-99.99,0.000000,,2013-02-02 07:41:00,
2013-02-01 23:51:00,52.0,36.0,-100.00,SSE,154,0.0,1.0,54,-99.99,,,-99.99,0.000000,,2013-02-02 07:51:00,